[[{"header":{"parameterUnit":"m.s-1","parameterCategory":1,"la1":30.2991,"la2":30.254,"lo1":-89.0895,"lo2":-89.0444,"dy":0.0017,"dx":0.0017,"nx":28,"ny":28,"refTime":"2024-04-13T09:00:00:Z","depth":0,"parameterNumber":2,"parameterNumberName":"U-component_of_WINDS"},"data":[0,0,0,0,0,0,0,0,0,0,0,0,0,0,0,0,0,0,0,0,0,0,0,0,0,0,0,0,0,0,0,0,0,0,0,0,0,0,0,0,0,0,0,0,0,0,0,0,0,0,0,0,0,0,0,0,0,0,-0.3831,-0.3831,0,-0.3857,-0.3858,-0.3858,-0.3853,-0.3853,-0.3852,-0.3852,-0.388,-0.3882,-0.3883,0,0,0,0,0,0,0,0,0,0,0,0,0,-0.3777,-0.3778,-0.3831,-0.3831,-0.3831,-0.3857,-0.3858,-0.3858,-0.3853,-0.3853,-0.3852,-0.3851,-0.388,-0.3881,-0.3883,0,0,0,0,0,0,0,0,0,0,0,0,0,-0.3801,-0.3778,-0.3831,-0.3832,-0.3833,-0.3857,-0.3858,-0.3858,-0.3853,-0.3853,-0.3852,-0.3851,-0.388,-0.3881,-0.3883,-0.3909,0,0,-0.3889,-0.3889,0,0,0,0,0,0,0,0,-0.38,-0.3803,-0.3832,-0.3832,-0.3833,-0.3851,-0.3849,-0.3875,-0.3853,-0.3845,-0.3852,-0.3851,-0.3871,-0.3874,-0.388,-0.391,-0.3911,-0.3889,-0.389,-0.3891,-0.3891,0,0,0,0,0,0,0,-0.3798,-0.3802,-0.3841,-0.3832,-0.3833,-0.3832,-0.3834,-0.3854,-0.3862,-0.3846,-0.3846,-0.3849,-0.3872,-0.3879,-0.3881,-0.3912,-0.3889,-0.389,-0.3892,-0.3892,-0.3962,-0.3962,0,0,0,0,0,0,-0.3796,-0.3801,-0.384,-0.3842,-0.3814,-0.3833,-0.3836,-0.3846,-0.3862,-0.3864,-0.3849,-0.3849,-0.3876,-0.3879,-0.3882,-0.3912,-0.3891,-0.3892,-0.3893,-0.3961,-0.3962,-0.3963,0,0,0,0,0,0,-0.3795,-0.38,-0.3839,-0.3821,-0.3826,-0.3835,-0.3846,-0.3847,-0.3854,-0.3864,-0.3866,-0.3855,-0.3875,-0.3879,-0.3902,-0.3913,-0.3893,-0.3895,-0.396,-0.3961,-0.3962,-0.3973,0,0,0,0,0,0,-0.3793,-0.3799,-0.3809,-0.3822,-0.3827,-0.3858,-0.3846,-0.3848,-0.3857,-0.3856,-0.387,-0.3872,-0.3875,-0.3899,-0.3903,-0.3915,-0.3896,-0.3959,-0.3961,-0.3962,-0.3971,-0.3974,-0.3976,0,0,0,0,0,-0.3791,-0.3812,-0.381,-0.3814,-0.384,-0.3859,-0.3862,-0.3865,-0.3858,-0.3868,-0.3874,-0.3872,-0.3911,-0.3901,-0.3906,-0.3919,-0.3958,-0.396,-0.3962,-0.397,-0.3973,-0.3976,0,0,0,0,0,0,-0.3801,-0.3813,-0.3811,-0.3836,-0.3846,-0.3858,-0.3871,-0.3869,-0.3882,-0.3881,-0.3884,-0.3887,-0.391,-0.3916,-0.3905,-0.3943,-0.3934,-0.3936,-0.3938,-0.3941,-0.3944,-0.3942,-0.3898,0,0,0,0,0,-0.3806,-0.3821,-0.383,-0.3851,-0.3857,-0.3863,-0.3871,-0.3872,-0.3884,-0.3888,-0.3896,-0.3908,-0.3922,-0.3932,-0.3947,-0.3972,-0.3975,-0.3983,-0.3985,-0.3987,-0.399,-0.4003,-0.4006,-0.3968,-0.3968,-0.3968,0,0,-0.3817,-0.3825,-0.3834,-0.3854,-0.3862,-0.3877,-0.3867,-0.3883,-0.3894,-0.3891,-0.3912,-0.3918,-0.3931,-0.3954,-0.3965,-0.3961,-0.4001,-0.3989,-0.3991,-0.3992,-0.4005,-0.4008,-0.4011,-0.3969,-0.3969,-0.3969,0,0,-0.3844,-0.3852,-0.3869,-0.3877,-0.3889,-0.3893,-0.3897,-0.3909,-0.3912,-0.3933,-0.3931,-0.3944,-0.397,-0.3978,-0.3986,-0.4014,-0.4012,-0.4019,-0.4032,-0.4044,-0.4047,-0.405,-0.4059,-0.4063,-0.4021,-0.4021,-0.4021,0,-0.3856,-0.3878,-0.3879,-0.3895,-0.3903,-0.39,-0.3917,-0.3925,-0.3942,-0.3948,-0.3942,-0.3973,-0.3981,-0.4006,-0.4013,-0.4019,-0.4024,-0.4017,-0.4047,-0.4049,-0.4052,-0.4061,-0.4064,-0.4022,-0.4022,-0.4022,-0.4022,0,-0.3891,-0.3906,-0.3919,-0.3934,-0.3944,-0.3961,-0.3964,-0.3974,-0.3973,-0.3978,-0.3998,-0.4008,-0.4023,-0.4029,-0.403,-0.4054,-0.4051,-0.4046,-0.4036,-0.4056,-0.4065,-0.4068,-0.4023,-0.4023,-0.4022,-0.4022,0,0,-0.3927,-0.394,-0.3945,-0.3951,-0.3963,-0.3975,-0.3991,-0.4005,-0.4013,-0.4024,-0.4038,-0.4059,-0.4054,-0.4062,-0.4064,-0.4074,-0.4095,-0.4068,-0.4068,-0.4072,-0.4121,-0.4125,-0.4129,-0.4093,-0.4094,-0.4094,-0.412,0,-0.3955,-0.3983,-0.3984,-0.401,-0.4023,-0.4019,-0.4033,-0.4042,-0.4046,-0.4058,-0.4062,-0.4076,-0.4069,-0.4074,-0.4085,-0.409,-0.4105,-0.4088,-0.4106,-0.4106,-0.4103,-0.4133,-0.4138,-0.4161,-0.4123,-0.4124,-0.4124,0,-0.3991,-0.4002,-0.4029,-0.4037,-0.4043,-0.4056,-0.4068,-0.408,-0.4089,-0.4091,-0.41,-0.4099,-0.4115,-0.4104,-0.4127,-0.4115,-0.4122,-0.4126,-0.4127,-0.4129,-0.4117,-0.4136,-0.4169,-0.4172,-0.413,-0.4129,-0.4129,0,-0.4014,-0.4035,-0.4054,-0.4059,-0.407,-0.4078,-0.4083,-0.4092,-0.41,-0.4111,-0.4116,-0.4128,-0.4136,-0.4145,-0.4148,-0.414,-0.4169,-0.4159,-0.4171,-0.4171,-0.4179,-0.4178,-0.4213,-0.4183,-0.4183,-0.4183,-0.4183,0,-0.4045,-0.4062,-0.4064,-0.4075,-0.4093,-0.4093,-0.4111,-0.4116,-0.4123,-0.4135,-0.4132,-0.4144,-0.4146,-0.4158,-0.416,-0.4177,-0.4181,-0.4183,-0.4183,-0.4183,-0.4183,-0.4188,-0.4186,-0.4184,-0.4184,-0.4183,-0.4183,0,-0.4074,-0.4076,-0.4096,-0.4103,-0.4105,-0.4118,-0.4125,-0.4136,-0.4138,-0.4154,-0.4157,-0.4162,-0.4175,-0.4178,-0.4195,-0.4196,-0.4216,-0.4215,-0.4213,-0.4213,-0.4225,-0.4224,-0.4265,-0.427,-0.4236,-0.4237,-0.4237,0,-0.4094,-0.4106,-0.4114,-0.4122,-0.4127,-0.4139,-0.4147,-0.4147,-0.4155,-0.4166,-0.4175,-0.4188,-0.4198,-0.422,-0.4225,-0.4237,-0.4236,-0.4249,-0.4238,-0.4237,-0.4236,-0.4235,-0.4236,-0.4252,-0.4252,-0.4252,-0.4253,0,-0.4128,-0.4128,-0.4139,-0.415,-0.4158,-0.4167,-0.4176,-0.4182,-0.4183,-0.4192,-0.4205,-0.4213,-0.4229,-0.4242,-0.4253,-0.4258,-0.4256,-0.4256,-0.4259,-0.426,-0.4257,-0.4258,-0.4219,-0.4255,-0.4255,-0.4255,-0.4255,-0.4254,-0.4153,-0.4163,-0.417,-0.4182,-0.4188,-0.4195,-0.4205,-0.4208,-0.4219,-0.4232,-0.4231,-0.4245,-0.4253,-0.4268,-0.4274,-0.4285,-0.4281,-0.4286,-0.4287,-0.4288,-0.4289,-0.4255,-0.4287,-0.4287,-0.4287,-0.4287,-0.4287,0,-0.4187,-0.4191,-0.4202,-0.4213,-0.4222,-0.4217,-0.4225,-0.4233,-0.4245,-0.4253,-0.4262,-0.4277,-0.4289,-0.4293,-0.4305,-0.4313,-0.4312,-0.4316,-0.4315,-0.4316,-0.4293,-0.4288,-0.4316,-0.4316,-0.4316,-0.4316,-0.4316,-0.4316,-0.4206,-0.4223,-0.4223,-0.4243,-0.4246,-0.426,-0.4265,-0.4271,-0.4277,-0.4293,-0.4302,-0.4305,-0.4311,-0.4322,-0.4333,-0.4334,-0.4338,-0.4343,-0.4343,-0.4321,-0.4318,-0.4315,-0.4311,-0.4344,-0.4344,-0.4366,-0.4366,-0.4366]},{"header":{"parameterUnit":"m.s-1","parameterCategory":1,"la1":30.2991,"la2":30.254,"lo1":-89.0895,"lo2":-89.0444,"dy":0.0017,"dx":0.0017,"nx":28,"ny":28,"refTime":"2024-04-13T09:00:00:Z","depth":0,"parameterNumber":3,"parameterNumberName":"V-component_of_WINDS"},"data":[0,0,0,0,0,0,0,0,0,0,0,0,0,0,0,0,0,0,0,0,0,0,0,0,0,0,0,0,0,0,0,0,0,0,0,0,0,0,0,0,0,0,0,0,0,0,0,0,0,0,0,0,0,0,0,0,0,0,-3.169,-3.1691,0,-3.1799,-3.1801,-3.1802,-3.178,-3.1778,-3.1776,-3.1774,-3.1882,-3.1887,-3.1892,0,0,0,0,0,0,0,0,0,0,0,0,0,-3.1457,-3.1462,-3.1689,-3.1691,-3.1692,-3.1799,-3.1801,-3.1802,-3.178,-3.1777,-3.1775,-3.1773,-3.1881,-3.1886,-3.1892,0,0,0,0,0,0,0,0,0,0,0,0,0,-3.1562,-3.1463,-3.1689,-3.1694,-3.1696,-3.1799,-3.1801,-3.1803,-3.178,-3.1777,-3.1774,-3.1772,-3.1879,-3.1886,-3.1893,-3.1997,0,0,-3.1915,-3.1918,0,0,0,0,0,0,0,0,-3.1556,-3.157,-3.1692,-3.1694,-3.1696,-3.1773,-3.1759,-3.1868,-3.1781,-3.1748,-3.1774,-3.177,-3.1848,-3.1858,-3.1885,-3.2002,-3.2007,-3.1915,-3.192,-3.1923,-3.1925,0,0,0,0,0,0,0,-3.1549,-3.1565,-3.1733,-3.1694,-3.1696,-3.169,-3.1701,-3.1779,-3.1813,-3.1751,-3.1749,-3.1763,-3.1849,-3.1878,-3.1887,-3.2008,-3.1915,-3.1922,-3.1926,-3.1929,-3.2216,-3.222,0,0,0,0,0,0,-3.154,-3.156,-3.1729,-3.1736,-3.1617,-3.1696,-3.1709,-3.1751,-3.1813,-3.1819,-3.1765,-3.1762,-3.1867,-3.1879,-3.1891,-3.2017,-3.1923,-3.1929,-3.1933,-3.2213,-3.2217,-3.2221,0,0,0,0,0,0,-3.1535,-3.1556,-3.1725,-3.1648,-3.1669,-3.1704,-3.1751,-3.1755,-3.1784,-3.1824,-3.1829,-3.1789,-3.1865,-3.1881,-3.1971,-3.202,-3.1933,-3.1939,-3.2209,-3.2214,-3.2219,-3.2269,0,0,0,0,0,0,-3.1529,-3.1554,-3.1595,-3.1649,-3.1673,-3.1805,-3.1754,-3.1759,-3.1797,-3.1793,-3.1848,-3.1854,-3.1864,-3.196,-3.1978,-3.2028,-3.1945,-3.2205,-3.2211,-3.2217,-3.2263,-3.2275,-3.2285,0,0,0,0,0,-3.1521,-3.1604,-3.1597,-3.1617,-3.1725,-3.1807,-3.1821,-3.1832,-3.1801,-3.1842,-3.1867,-3.1852,-3.2012,-3.197,-3.199,-3.2043,-3.2202,-3.2209,-3.2217,-3.2258,-3.2273,-3.2285,0,0,0,0,0,0,-3.1553,-3.1611,-3.1604,-3.1707,-3.1753,-3.1803,-3.1855,-3.1848,-3.1902,-3.1896,-3.1906,-3.1919,-3.2011,-3.2036,-3.1988,-3.2146,-3.2102,-3.2114,-3.2127,-3.2141,-3.2152,-3.2144,-3.1951,0,0,0,0,0,-3.1572,-3.1636,-3.1682,-3.1769,-3.1792,-3.182,-3.1856,-3.1861,-3.1908,-3.1927,-3.1959,-3.2004,-3.2065,-3.2104,-3.2162,-3.2267,-3.2278,-3.2313,-3.2324,-3.2333,-3.2343,-3.24,-3.2416,-3.2246,-3.2245,-3.2245,0,0,-3.1612,-3.1652,-3.1691,-3.1776,-3.1812,-3.1877,-3.1836,-3.1906,-3.1954,-3.1937,-3.2025,-3.205,-3.2101,-3.2199,-3.2244,-3.2223,-3.2393,-3.2343,-3.235,-3.2355,-3.2409,-3.2425,-3.244,-3.2251,-3.225,-3.2249,0,0,-3.1719,-3.1755,-3.1831,-3.1868,-3.1924,-3.1942,-3.196,-3.2013,-3.2029,-3.2117,-3.2106,-3.2163,-3.2267,-3.2304,-3.2336,-3.2457,-3.2445,-3.2475,-3.2534,-3.2589,-3.2602,-3.2614,-3.2657,-3.2673,-3.2485,-3.2486,-3.2486,0,-3.1761,-3.1859,-3.1871,-3.1943,-3.198,-3.197,-3.2046,-3.2081,-3.2152,-3.2178,-3.2154,-3.2284,-3.2318,-3.2424,-3.2454,-3.2481,-3.2501,-3.2469,-3.26,-3.2612,-3.2623,-3.2664,-3.268,-3.2489,-3.2488,-3.2488,-3.2488,0,-3.1909,-3.1977,-3.2031,-3.2102,-3.2145,-3.2219,-3.2241,-3.2284,-3.2285,-3.2305,-3.2395,-3.2435,-3.2501,-3.2527,-3.2528,-3.2634,-3.2619,-3.2597,-3.2553,-3.2643,-3.2681,-3.2697,-3.2494,-3.2492,-3.2491,-3.2491,0,0,-3.2038,-3.2114,-3.2134,-3.2166,-3.2227,-3.2279,-3.2352,-3.2418,-3.2454,-3.2503,-3.2564,-3.2653,-3.2633,-3.267,-3.2675,-3.2724,-3.2817,-3.2696,-3.2698,-3.2717,-3.2936,-3.2952,-3.297,-3.281,-3.2813,-3.2815,-3.2931,0,-3.2149,-3.2279,-3.2292,-3.2408,-3.2471,-3.2462,-3.2526,-3.2569,-3.259,-3.2646,-3.2668,-3.2731,-3.27,-3.2723,-3.2771,-3.2796,-3.2861,-3.2788,-3.2866,-3.2868,-3.2853,-3.299,-3.3007,-3.3114,-3.2947,-3.2949,-3.2951,0,-3.2297,-3.2352,-3.2475,-3.2527,-3.2554,-3.2611,-3.2672,-3.2726,-3.2775,-3.2786,-3.2828,-3.2827,-3.2901,-3.2854,-3.2956,-3.2906,-3.2939,-3.2956,-3.296,-3.2968,-3.2915,-3.3001,-3.3149,-3.3165,-3.2975,-3.2973,-3.2971,0,-3.2378,-3.2483,-3.257,-3.2598,-3.2661,-3.2701,-3.2729,-3.2775,-3.2814,-3.2867,-3.2893,-3.2953,-3.2986,-3.3033,-3.3048,-3.3013,-3.3149,-3.3104,-3.3161,-3.316,-3.3189,-3.3187,-3.3345,-3.3211,-3.3211,-3.321,-3.321,0,-3.2502,-3.2577,-3.2608,-3.2661,-3.2745,-3.2759,-3.2842,-3.2867,-3.2909,-3.2966,-3.2962,-3.3015,-3.3032,-3.3089,-3.3101,-3.3184,-3.3198,-3.3209,-3.3212,-3.321,-3.3208,-3.3231,-3.3224,-3.3215,-3.3214,-3.3213,-3.3212,0,-3.2607,-3.2631,-3.2725,-3.2778,-3.2793,-3.2852,-3.2896,-3.2948,-3.2968,-3.3041,-3.3059,-3.309,-3.3157,-3.3177,-3.3256,-3.3264,-3.3361,-3.3356,-3.3345,-3.3345,-3.34,-3.3395,-3.3577,-3.3602,-3.3452,-3.3454,-3.3455,0,-3.2684,-3.2742,-3.2801,-3.284,-3.287,-3.2932,-3.2972,-3.2988,-3.303,-3.309,-3.3134,-3.32,-3.3254,-3.336,-3.3389,-3.345,-3.3447,-3.3507,-3.3456,-3.3452,-3.3447,-3.3444,-3.3449,-3.3516,-3.3518,-3.3519,-3.352,0,-3.2818,-3.2827,-3.2885,-3.2948,-3.2997,-3.3046,-3.3094,-3.3126,-3.3149,-3.3196,-3.3264,-3.3306,-3.3388,-3.3453,-3.3515,-3.3542,-3.3535,-3.3536,-3.3552,-3.3551,-3.3542,-3.3547,-3.3371,-3.3531,-3.353,-3.3529,-3.3529,-3.3528,-3.2911,-3.2962,-3.3012,-3.3077,-3.3115,-3.3161,-3.3211,-3.3239,-3.3297,-3.3366,-3.3371,-3.3445,-3.3492,-3.3575,-3.3606,-3.3663,-3.3646,-3.3669,-3.3675,-3.3681,-3.3685,-3.3533,-3.3674,-3.3674,-3.3674,-3.3674,-3.3673,0,-3.3044,-3.3076,-3.3136,-3.3204,-3.3256,-3.3246,-3.3298,-3.3342,-3.3407,-3.3453,-3.3506,-3.3585,-3.3648,-3.3683,-3.3746,-3.3786,-3.3784,-3.3802,-3.3799,-3.3805,-3.3697,-3.3677,-3.3802,-3.3802,-3.3802,-3.3802,-3.3802,-3.3802,-3.312,-3.3206,-3.3221,-3.3326,-3.3357,-3.3431,-3.3462,-3.3503,-3.354,-3.3628,-3.3682,-3.3704,-3.3745,-3.3812,-3.3869,-3.3878,-3.3901,-3.3921,-3.3927,-3.3826,-3.3813,-3.38,-3.3781,-3.3926,-3.3926,-3.403,-3.4031,-3.4032]}]]